Location: Beccas
(43.4309°N, 0.1528°E)
Time: 10:25:32
(UTC+00:00)

Cosmos 1758 - Pass Details

Date: 15 October 2021
Orbit: 540 x 560 km, 82.5° (Epoch: 03 December)

Event Time Altitude Azimuth Distance (km) Brightness Sun altitude
Rises 18:04:44 0° 187° (S) 2,707 7.0 -9.6°
Reaches altitude 10° 18:06:54 10° 188° (S) 1,815 6.1 -10.0°
Maximum altitude 18:10:53 87° 274° (W) 553 3.3 -10.7°
Drops below altitude 10° 18:14:54 10° 8° (N) 1,819 5.9 -11.4°
Sets 18:17:04 0° 9° (N) 2,714 6.8 -11.8°
